Hatteras, NC

8:18 AM EST on December 15, 2019 (GMT -0500)
Mitchell

Weather History for KHSE - August, 2019

Change the Weather History Date:

Saturday, August 24, 2019

  Actual Average Record
Temperature  
Mean Temperature 80 °F 78 °F  
Max Temperature 84 °F 84 °F 91 °F (1968)
Min Temperature 77 °F 73 °F 59 °F (1978)
Degree Days  
Heating Degree Days 0 0  
Month to date heating degree days 0 0  
Since 1 June heating degree days 0 3  
Since 1 July heating degree days 0 0  
Cooling Degree Days 16 13  
Month to date cooling degree days 414 329  
Year to date cooling degree days 1714 1217  
Since 1 June cooling degree days 1332 1074  
Growing Degree Days 30 (Base 50)    
Moisture  
Dew Point 73 °F    
Average Humidity 80    
Maximum Humidity 88    
Minimum Humidity 69    
Precipitation  
Precipitation T in 0.25 in 5.27 in (2010)
Month to date precipitation 7.02 5.20  
Year to date precipitation 38.74 35.46  
Snow  
Snow 0.00 in - - ()
Month to date snowfall 0.0  
Since 1 July snowfall 0.0  
Snow Depth 0.00 in    
Sea Level Pressure  
Sea Level Pressure 30.03 in    
Wind  
Wind Speed 8 mph ()    
Max Wind Speed 14 mph    
Max Gust Speed 23 mph    
Visibility 10.0 miles    
Events Rain , Thunderstorm    
T = Trace of Precipitation, MM = Missing Value Source: Averaged Metar Reports

Daily Weather History Graph

Daily Weather History Graph

Search for Another Location

Airport or City:

Astronomy

Aug. 24, 2019 Rise Set
Actual Time 6:28 AM EDT 7:40 PM EDT
Civil Twilight 6:02 AM EDT 8:06 PM EDT
Nautical Twilight 5:31 AM EDT 8:37 PM EDT
Astronomical Twilight 4:58 AM EDT 9:10 PM EDT
Moon 12:24 AM EDT (8/24) 2:47 PM EDT (8/24)
Length of Visible Light 14h 04m
Length of Day
13h 11m
Last Quarter, 39% of the Moon is Illuminated
Aug 24
Last Quarter
Aug 30
New
Sep 5
First Quarter
Sep 14
Full
Sep 21
Last Quarter

Hourly Weather History & Observations

Time (EDT) Temp. Heat Index Dew Point Humidity Pressure Visibility Wind Dir Wind Speed Gust Speed Precip Events Conditions
12:34 AM 82.0 °F 91.0 °F 78.1 °F 88% 30.01 in 10.0 mi WSW 9.2 mph - N/A Thunderstorm Partly Cloudy
12:51 AM 80.1 °F 84.5 °F 73.9 °F 81% 30.01 in 10.0 mi WNW 9.2 mph - N/A Thunderstorm Mostly Cloudy
12:58 AM 81.0 °F 86.7 °F 75.0 °F 82% 30.00 in 10.0 mi WNW 12.7 mph 18.4 mph N/A Thunderstorm Mostly Cloudy
1:07 AM 80.1 °F 85.4 °F 75.9 °F 87% 29.99 in 10.0 mi NW 6.9 mph 17.3 mph 0.00 in Rain Light Rain
1:51 AM 80.1 °F 85.1 °F 75.0 °F 85% 29.99 in 10.0 mi West 6.9 mph - 0.00 in   Clear
2:51 AM 81.0 °F 86.2 °F 73.9 °F 79% 30.00 in 10.0 mi West 9.2 mph 16.1 mph N/A   Partly Cloudy
3:51 AM 79.0 °F - 73.0 °F 82% 30.00 in 10.0 mi WNW 6.9 mph - N/A   Scattered Clouds
4:41 AM 78.1 °F - 73.0 °F 84% 30.00 in 10.0 mi NW 9.2 mph - N/A   Mostly Cloudy
4:49 AM 78.8 °F - 73.4 °F 83% 30.00 in 10.0 mi NW 9.2 mph - N/A   Mostly Cloudy
4:51 AM 78.1 °F - 73.0 °F 84% 30.00 in 10.0 mi Variable 6.9 mph - N/A   Mostly Cloudy
5:12 AM 78.1 °F - 73.0 °F 84% 30.00 in 10.0 mi Variable 4.6 mph - N/A   Mostly Cloudy
5:44 AM 78.1 °F - 73.9 °F 87% 30.00 in 10.0 mi Variable 6.9 mph - N/A   Mostly Cloudy
5:51 AM 78.1 °F - 73.0 °F 84% 30.00 in 10.0 mi NNE 5.8 mph - N/A   Mostly Cloudy
6:02 AM 78.1 °F - 73.0 °F 84% 30.01 in 10.0 mi Variable 6.9 mph - N/A   Mostly Cloudy
6:51 AM 78.1 °F - 73.0 °F 84% 30.02 in 10.0 mi NE 8.1 mph - N/A   Mostly Cloudy
7:34 AM 78.1 °F - 73.9 °F 87% 30.03 in 10.0 mi NE 6.9 mph - N/A   Mostly Cloudy
7:43 AM 78.1 °F - 73.9 °F 87% 30.04 in 10.0 mi NE 4.6 mph - N/A   Scattered Clouds
7:51 AM 79.0 °F - 73.9 °F 84% 30.04 in 10.0 mi NE 6.9 mph - N/A   Scattered Clouds
8:13 AM 80.1 °F 84.5 °F 73.9 °F 81% 30.04 in 10.0 mi NE 9.2 mph - N/A   Mostly Cloudy
8:42 AM 80.1 °F 84.5 °F 73.9 °F 81% 30.05 in 10.0 mi NE 9.2 mph - N/A   Mostly Cloudy
8:51 AM 81.0 °F 86.2 °F 73.9 °F 79% 30.05 in 10.0 mi NNE 8.1 mph - N/A   Mostly Cloudy
9:51 AM 82.9 °F 89.4 °F 73.9 °F 74% 30.06 in 10.0 mi Variable 6.9 mph - N/A   Overcast
10:51 AM 82.0 °F 87.9 °F 73.9 °F 76% 30.07 in 10.0 mi NE 6.9 mph - N/A   Mostly Cloudy
11:42 AM 81.0 °F 86.2 °F 73.9 °F 79% 30.06 in 10.0 mi NNE 9.2 mph - N/A   Overcast
11:51 AM 81.0 °F 86.2 °F 73.9 °F 79% 30.06 in 10.0 mi Variable 5.8 mph - N/A   Overcast
12:00 PM 81.0 °F 86.2 °F 73.9 °F 79% 30.06 in 10.0 mi NE 5.8 mph - N/A   Overcast
12:11 PM 81.0 °F 86.2 °F 73.9 °F 79% 30.06 in 10.0 mi NE 9.2 mph - N/A   Overcast
12:44 PM 81.0 °F 86.2 °F 73.9 °F 79% 30.06 in 10.0 mi NE 9.2 mph - N/A   Mostly Cloudy
12:51 PM 80.1 °F 84.2 °F 73.0 °F 79% 30.06 in 10.0 mi NE 8.1 mph - N/A   Mostly Cloudy
1:29 PM 81.0 °F 85.8 °F 73.0 °F 77% 30.06 in 10.0 mi NE 8.1 mph - N/A   Overcast
1:51 PM 81.0 °F 85.8 °F 73.0 °F 77% 30.05 in 10.0 mi NE 8.1 mph - N/A   Overcast
2:09 PM 82.0 °F 87.4 °F 73.0 °F 74% 30.05 in 10.0 mi NE 9.2 mph - N/A   Overcast
2:51 PM 82.0 °F 87.4 °F 73.0 °F 74% 30.05 in 10.0 mi NE 6.9 mph - N/A   Overcast
3:51 PM 82.0 °F 86.7 °F 72.0 °F 71% 30.03 in 10.0 mi NE 9.2 mph - N/A   Overcast
4:51 PM 81.0 °F 84.9 °F 71.1 °F 72% 30.04 in 10.0 mi NNE 9.2 mph - N/A   Overcast
5:51 PM 80.1 °F 83.2 °F 70.0 °F 71% 30.04 in 10.0 mi NE 10.4 mph 18.4 mph N/A   Mostly Cloudy
6:51 PM 79.0 °F - 70.0 °F 74% 30.04 in 10.0 mi NE 12.7 mph 19.6 mph 0.00 in   Overcast
7:51 PM 78.1 °F - 70.0 °F 76% 30.05 in 10.0 mi NE 8.1 mph 20.7 mph 0.00 in   Overcast
8:51 PM 78.1 °F - 70.0 °F 76% 30.06 in 10.0 mi NE 10.4 mph 19.6 mph N/A   Overcast
9:51 PM 78.1 °F - 70.0 °F 76% 30.06 in 10.0 mi NNE 11.5 mph 20.7 mph N/A   Overcast
10:51 PM 78.1 °F - 70.0 °F 76% 30.06 in 10.0 mi NE 10.4 mph 17.3 mph N/A   Overcast
11:51 PM 78.1 °F - 71.1 °F 79% 30.05 in 10.0 mi NE 9.2 mph 20.7 mph N/A   Overcast